Hourly Data Report for April 23, 2018

MIRAMICHI RCS
NEW BRUNSWICK
Current Station Operator: ECCC - MSC

47°00'34.000" N
65°27'54.000" W
33.00 m
8100989
71744
ACQ

Download Data

Hourly Data (April 2018)
Hourly Data Report for April 23, 2018
TIME
LST
Temp Definition
°C
Dew Point Definition
°C
Rel Hum Definition
%
Precip. Amount Definition
mm

Wind Dir Definition
10's deg

Wind Spd Definition
km/h
Visibility Definition
km
Stn Press Definition
kPa
Hmdx Definition


Wind Chill Definition


Weather Definition


00:00 0.5 -9.5 47 0.0 29 8   102.07     LegendNANA
01:00 -1.1 -8.6 57 0.0 26 5   102.08   -3 LegendNANA
02:00 -0.7 -9.1 53 0.0 26 8   102.09   -4 LegendNANA
03:00 -1.6 -8.6 59 0.0 26 7   102.12   -4 LegendNANA
04:00 -1.5 -8.8 57 0.0 26 8   102.14   -5 LegendNANA
05:00 -1.9 -8.8 59 0.0 26 7   102.16   -5 LegendNANA
06:00 -1.4 -8.8 57 0.0 26 6   102.23   -4 LegendNANA
07:00 0.9 -8.4 50 0.0 25 4   102.28     LegendNANA
08:00 3.1 -6.3 50 0.0 23 7   102.33     LegendNANA
09:00 7.0 -6.7 37 0.0 22 7   102.36     LegendNANA
10:00 10.1 -10.6 22 0.0 30 11   102.37     LegendNANA
11:00 11.0 -10.6 21 0.0 27 11   102.34     LegendNANA
12:00 9.5 -6.8 31 0.0 22 14   102.29     LegendNANA
13:00 12.7 -12.3 16 0.0 26 9   102.23     LegendNANA
14:00 13.4 -13.9 14 0.0 29 14   102.22     LegendNANA
15:00 13.9 -12.3 15 0.0 24 9   102.17     LegendNANA
16:00 15.0 -12.1 14 0.0 30 5   102.14     LegendNANA
17:00 14.7 -9.9 17 0.0 23 3   102.11     LegendNANA
18:00 14.5 -9.9 18 0.0 22 4   102.07     LegendNANA
19:00 11.8 -9.0 22 0.0 24 10   102.07     LegendNANA
20:00 9.3 -8.2 28 0.0 26 7   102.09     LegendNANA
21:00 7.9 -8.7 30 0.0 26 7   102.10     LegendNANA
22:00 6.1 -7.9 36 0.0 27 8   102.10     LegendNANA
23:00 1.5 -5.2 61 0.0 26 6   102.08     LegendNANA

Notes on Data Quality.

Legend

  • E = Estimated
  • M = Missing
  • NA = Not Available*
  • [empty] = Indicates an unobserved value
Date modified: